SKYSAT-B

Last updated on Wed Sep 17 2025 00:02:31 GMT+0000 (Coordinated Universal Time)

1 40072U 14037D 25259.55008310 .00001534 00000+0 17892-3 0 9995 2 40072 98.3461 198.7634 0007296 86.0799 274.1249 14.86797140605284
UTC large
Height (km)
Speed (km/s)
/
Latitude / Longitude
Inclination (degrees)
Orbital Period (minutes)
Azimuth
Elevation
Range (km)
Doppler Factor

Next 0 passes for location: London (51.5072 / 0.1276)

Sorry there are no passes over London.